Погода в Южноукраинске

Украина / Николаевская область     47°49′27″N   31°10′13″E
темп.,
°C
ветер,
м/с
пор.,
м/с
влажн.,
%
обл.,
%
осадки,
мм/ч
давл.,
гПа
погр.,
м
29 июня, ср
ср2900:00+23св466411 0.0 101697
03:00+21ссв34685 0.1 101659
06:00+21ссв36735 0.0 1016136
09:00+28всв464842 0.0 1016761
12:00+32всв673214 0.0 10152392
15:00+34в5627100 0.0 10143096
18:00+33в54267 0.0 10132955
21:00+27всв443994 0.0 101448
30 июня, чт
чт3000:00+25всв36507 0.0 1014102
03:00+21всв487188 0.0 1014161
06:00+22вюв2467100 0.0 1014122
09:00+27ссз125196 0.0 1014572
12:00+29ссв324371 0.0 10141374
15:00+32св55394 0.0 10122170
18:00+23ююв477595 0.6 1014324
21:00+22всв337710 3.5 101557
1 июля, пт
пт100:00+20всв348193 0.4 101678
03:00+17св48830 0.4 1016145
06:00+17св37840 0.0 1017157
09:00+23всв45560 0.0 1018760
12:00+28св55400 0.0 10172021
15:00+30св55270 0.0 10172206
18:00+29св65290 0.0 10172135
21:00+23св410460 0.0 1018188
2 июля, сб
сб200:00+20всв47520 0.0 1020107
03:00+18всв35635 0.0 102078
06:00+17всв3463100 0.0 102176
09:00+23всв3444100 0.0 1022585
12:00+28св34353 0.0 10212080
15:00+30св45310 0.0 10212442
18:00+29св55300 0.0 10202182
21:00+22всв49390 0.0 1021167
3 июля, вс
вс300:00+19в47430 0.0 1022102
03:00+17в335028 0.0 102230
06:00+17в22534 0.0 102225
09:00+23ююв11340 0.0 1022480
12:00+28в22250 0.0 10211319
15:00+31всв12213 0.0 10192128
18:00+31вюв12205 0.0 10182340
21:00+26юв33294 0.0 101816